When you browse on this site, cookies collect data to enhance your experience and personalize the content and advertising you see.
Visit our Privacy Policy to learn more. By continuing to use the site, you agree to this use of cookies and data.
  • In Schweiz
  • Länderverzeichnis
  • Für 7 Tage
  • Wassertemperatur
  • Wetterkarte
  • Widgets
  • user-avatar
    Anmelden

    Stündliche Wetter Klagenfurt

    Heute, 2 Juni, Dienstag

    Zeit Temperatur Niederschläge Wind Luftdruck Luftfeuchtigkeit
    00:00 +10°C° 0 mm 1 m/S 690 mmHg 86%
    01:00 +8°C° 0 mm 0 m/S 690 mmHg 87%
    02:00 +9°C° 0 mm 1 m/S 690 mmHg 88%
    03:00 +9°C° 0 mm 1 m/S 689 mmHg 88%
    04:00 +9°C° 0 mm 1 m/S 689 mmHg 88%
    05:00 +11°C° 0 mm 1 m/S 689 mmHg 81%
    06:00 +12°C° 0 mm 1 m/S 690 mmHg 75%
    07:00 +15°C° 0 mm 1 m/S 690 mmHg 67%
    08:00 +18°C° 0 mm 1 m/S 690 mmHg 61%
    09:00 +20°C° 0 mm 1 m/S 690 mmHg 54%
    10:00 +21°C° 0 mm 1 m/S 690 mmHg 48%
    11:00 +21°C° 0.4 mm 1 m/S 690 mmHg 49%
    12:00 +21°C° 0.4 mm 1 m/S 690 mmHg 51%
    13:00 +21°C° 0.4 mm 1 m/S 689 mmHg 53%
    14:00 +21°C° 0.6 mm 1 m/S 689 mmHg 57%
    15:00 +20°C° 0.6 mm 1 m/S 689 mmHg 62%
    16:00 +20°C° 0.6 mm 1 m/S 688 mmHg 66%
    17:00 +18°C° 0.5 mm 1 m/S 688 mmHg 71%
    18:00 +16°C° 0.5 mm 1 m/S 688 mmHg 77%
    19:00 +15°C° 0.5 mm 1 m/S 688 mmHg 82%
    20:00 +13°C° 0.4 mm 1 m/S 687 mmHg 84%
    21:00 +12°C° 0.4 mm 1 m/S 687 mmHg 87%
    22:00 +10°C° 0.4 mm 1 m/S 687 mmHg 89%
    23:00 +10°C° 0.1 mm 1 m/S 687 mmHg 89%

    Morgen, 3 Juni, Mittwoch

    Zeit Temperatur Niederschläge Wind Luftdruck Luftfeuchtigkeit
    00:00 +9°C° 0.1 mm 1 m/S 687 mmHg 90%
    01:00 +9°C° 0.1 mm 1 m/S 686 mmHg 91%
    02:00 +9°C° 0 mm 1 m/S 686 mmHg 91%
    03:00 +8°C° 0 mm 1 m/S 686 mmHg 91%
    04:00 +8°C° 0 mm 1 m/S 685 mmHg 91%
    05:00 +10°C° 0 mm 1 m/S 685 mmHg 89%
    06:00 +12°C° 0 mm 1 m/S 685 mmHg 86%
    07:00 +12°C° 0 mm 0 m/S 685 mmHg 83%
    08:00 +16°C° 0 mm 1 m/S 686 mmHg 71%
    09:00 +19°C° 0 mm 1 m/S 686 mmHg 60%
    10:00 +22°C° 0 mm 1 m/S 686 mmHg 48%
    11:00 +22°C° 0.2 mm 1 m/S 686 mmHg 48%
    12:00 +21°C° 0.2 mm 2 m/S 685 mmHg 48%
    13:00 +23°C° 0.2 mm 2 m/S 685 mmHg 47%
    14:00 +21°C° 0.2 mm 2 m/S 684 mmHg 51%
    15:00 +20°C° 0.2 mm 2 m/S 684 mmHg 55%
    16:00 +20°C° 0.2 mm 2 m/S 684 mmHg 59%
    17:00 +18°C° 0.2 mm 2 m/S 683 mmHg 68%
    18:00 +17°C° 0.2 mm 2 m/S 683 mmHg 76%
    19:00 +15°C° 0.2 mm 2 m/S 682 mmHg 84%
    20:00 +14°C° 0.1 mm 1 m/S 682 mmHg 87%
    21:00 +13°C° 0.1 mm 1 m/S 682 mmHg 91%
    22:00 +11°C° 0.1 mm 1 m/S 682 mmHg 94%
    23:00 +11°C° 0 mm 1 m/S 682 mmHg 95%

    übermorgen, 4 Juni, Donnerstag

    Zeit Temperatur Niederschläge Wind Luftdruck Luftfeuchtigkeit
    00:00 +11°C° 0 mm 1 m/S 681 mmHg 95%
    01:00 +10°C° 0 mm 1 m/S 681 mmHg 96%
    02:00 +10°C° 0 mm 1 m/S 681 mmHg 96%
    03:00 +10°C° 0 mm 1 m/S 680 mmHg 97%
    04:00 +10°C° 0 mm 1 m/S 680 mmHg 97%
    05:00 +11°C° 0 mm 1 m/S 680 mmHg 95%
    06:00 +13°C° 0 mm 1 m/S 680 mmHg 92%
    07:00 +14°C° 0 mm 1 m/S 680 mmHg 90%
    08:00 +15°C° 0.3 mm 1 m/S 680 mmHg 88%
    09:00 +15°C° 0.3 mm 2 m/S 680 mmHg 85%
    10:00 +16°C° 0.3 mm 2 m/S 680 mmHg 83%
    11:00 +15°C° 1.1 mm 2 m/S 680 mmHg 86%
    12:00 +14°C° 1.1 mm 3 m/S 680 mmHg 89%
    13:00 +13°C° 1.1 mm 3 m/S 679 mmHg 92%
    14:00 +13°C° 1.6 mm 3 m/S 679 mmHg 93%
    15:00 +13°C° 1.6 mm 3 m/S 679 mmHg 95%
    16:00 +12°C° 1.6 mm 3 m/S 678 mmHg 97%
    17:00 +13°C° 1.2 mm 2 m/S 678 mmHg 97%
    18:00 +13°C° 1.2 mm 2 m/S 678 mmHg 97%
    19:00 +13°C° 1.2 mm 2 m/S 677 mmHg 98%
    20:00 +13°C° 0.7 mm 2 m/S 677 mmHg 98%
    21:00 +12°C° 0.7 mm 1 m/S 677 mmHg 98%
    22:00 +12°C° 0.7 mm 1 m/S 677 mmHg 98%
    23:00 +12°C° 1 mm 1 m/S 677 mmHg 98%

    5 Juni, Freitag

    Zeit Temperatur Niederschläge Wind Luftdruck Luftfeuchtigkeit
    00:00 +13°C° 1 mm 1 m/S 677 mmHg 99%
    01:00 +13°C° 1 mm 1 m/S 676 mmHg 99%
    02:00 +13°C° 1.5 mm 1 m/S 676 mmHg 99%
    03:00 +13°C° 1.5 mm 2 m/S 676 mmHg 99%
    04:00 +13°C° 1.5 mm 2 m/S 676 mmHg 99%
    05:00 +13°C° 2.8 mm 2 m/S 676 mmHg 98%
    06:00 +13°C° 2.8 mm 2 m/S 676 mmHg 98%
    07:00 +13°C° 2.8 mm 1 m/S 676 mmHg 98%
    08:00 +14°C° 1.7 mm 1 m/S 677 mmHg 97%
    09:00 +14°C° 1.7 mm 1 m/S 677 mmHg 96%
    10:00 +14°C° 1.7 mm 1 m/S 678 mmHg 95%
    11:00 +15°C° 1 mm 1 m/S 678 mmHg 92%
    12:00 +15°C° 1 mm 1 m/S 679 mmHg 89%
    13:00 +16°C° 1 mm 1 m/S 679 mmHg 87%
    14:00 +16°C° 1.2 mm 1 m/S 680 mmHg 87%
    15:00 +16°C° 1.2 mm 1 m/S 680 mmHg 88%
    16:00 +16°C° 1.2 mm 1 m/S 680 mmHg 88%
    17:00 +15°C° 0.7 mm 1 m/S 681 mmHg 90%
    18:00 +14°C° 0.7 mm 1 m/S 681 mmHg 92%
    19:00 +13°C° 0.7 mm 1 m/S 681 mmHg 93%
    20:00 +12°C° 0.1 mm 1 m/S 682 mmHg 94%
    21:00 +11°C° 0.1 mm 1 m/S 682 mmHg 94%
    22:00 +10°C° 0.1 mm 1 m/S 683 mmHg 94%
    23:00 +10°C° 0.2 mm 1 m/S 683 mmHg 94%

    6 Juni, Samstag

    Zeit Temperatur Niederschläge Wind Luftdruck Luftfeuchtigkeit
    00:00 +9°C° 0.2 mm 0 m/S 684 mmHg 95%
    01:00 +9°C° 0.2 mm 0 m/S 684 mmHg 95%
    02:00 +9°C° 0 mm 0 m/S 684 mmHg 95%
    03:00 +9°C° 0 mm 0 m/S 684 mmHg 95%
    04:00 +9°C° 0 mm 0 m/S 684 mmHg 95%
    05:00 +10°C° 0 mm 0 m/S 685 mmHg 93%
    06:00 +10°C° 0 mm 0 m/S 685 mmHg 91%
    07:00 +11°C° 0 mm 0 m/S 685 mmHg 89%
    08:00 +12°C° 0 mm 0 m/S 686 mmHg 81%
    09:00 +15°C° 0 mm 1 m/S 686 mmHg 74%
    10:00 +16°C° 0 mm 1 m/S 686 mmHg 66%
    11:00 +16°C° 0 mm 1 m/S 686 mmHg 67%
    12:00 +16°C° 0 mm 1 m/S 686 mmHg 69%
    13:00 +16°C° 0 mm 1 m/S 686 mmHg 70%
    14:00 +18°C° 0.1 mm 1 m/S 685 mmHg 69%
    15:00 +19°C° 0.1 mm 1 m/S 685 mmHg 67%
    16:00 +20°C° 0.1 mm 1 m/S 685 mmHg 66%
    17:00 +18°C° 0.1 mm 1 m/S 685 mmHg 73%
    18:00 +16°C° 0.1 mm 1 m/S 685 mmHg 80%
    19:00 +15°C° 0.1 mm 1 m/S 685 mmHg 87%
    20:00 +14°C° 0 mm 1 m/S 685 mmHg 90%
    21:00 +13°C° 0 mm 1 m/S 685 mmHg 93%
    22:00 +11°C° 0 mm 1 m/S 685 mmHg 96%
    23:00 +11°C° 0 mm 1 m/S 685 mmHg 96%

    7 Juni, Sonntag

    Zeit Temperatur Niederschläge Wind Luftdruck Luftfeuchtigkeit
    00:00 +11°C° 0 mm 1 m/S 685 mmHg 96%
    01:00 +11°C° 0 mm 1 m/S 684 mmHg 97%
    02:00 +11°C° 0.2 mm 1 m/S 684 mmHg 97%
    03:00 +10°C° 0.2 mm 0 m/S 684 mmHg 97%
    04:00 +10°C° 0.2 mm 0 m/S 684 mmHg 97%
    05:00 +11°C° 0.1 mm 0 m/S 684 mmHg 96%
    06:00 +11°C° 0.1 mm 0 m/S 685 mmHg 95%
    07:00 +12°C° 0.1 mm 0 m/S 685 mmHg 94%
    08:00 +13°C° 0.3 mm 1 m/S 685 mmHg 93%
    09:00 +14°C° 0.3 mm 1 m/S 685 mmHg 92%
    10:00 +15°C° 0.3 mm 1 m/S 685 mmHg 91%
    11:00 +15°C° 0.6 mm 2 m/S 685 mmHg 89%
    12:00 +16°C° 0.6 mm 2 m/S 685 mmHg 88%
    13:00 +17°C° 0.6 mm 3 m/S 685 mmHg 86%
    14:00 +17°C° 0.5 mm 3 m/S 685 mmHg 85%
    15:00 +17°C° 0.5 mm 3 m/S 684 mmHg 83%
    16:00 +17°C° 0.5 mm 3 m/S 684 mmHg 82%
    17:00 +16°C° 0.1 mm 2 m/S 684 mmHg 85%
    18:00 +16°C° 0.1 mm 2 m/S 684 mmHg 88%
    19:00 +15°C° 0.1 mm 1 m/S 684 mmHg 91%
    20:00 +14°C° 0.1 mm 1 m/S 684 mmHg 93%
    21:00 +13°C° 0.1 mm 1 m/S 685 mmHg 95%
    22:00 +13°C° 0.1 mm 1 m/S 685 mmHg 97%
    23:00 +13°C° 0 mm 1 m/S 685 mmHg 97%
    Mehr zeigen